User: anonymous   Login
Location: Cueva de Ratón
(10.1013°N, 67.6606°W)
Time: 13:07:51
(UTC+00:00)
Language:

NOSS 3-4 (C) - Orbit

View from above orbital plane
View from above orbital plane
View from above satellite
View from above satellite

Ground track
Ground track

The orbit data is extracted from the following two-line orbital elements,

1 31708U 07027C   24065.77331991 0.00000000  00000-0  00000-0 0    05
2 31708  63.3770 299.4963 0395915  20.6840 339.3160 13.40901081    03
Epoch (UTC): 05 March 2024 18:33:34
Eccentricity: 0.0395915
inclination: 63.3770°
perigee height: 809 km
apogee height: 1402 km
right ascension of ascending node: 299.4963°
argument of perigee: 20.6840°
revolutions per day: 13.40901081
mean anomaly at epoch: 339.3160°
orbit number at epoch: 0

The dashed part of the orbit path shows where the satellite is in the earth's shadow,  

DLR